481P/Lemmon-PanSTARRS (2023)

Japanese version
Home page
Updated on May 13, 2024

---------------------------------------------------------------------

* Profile

Designation 481P/2024 C5
Recovery Date February 12, 2024
Magnitude 20.2 mag
Recoverer E. Schwab (Egelsbach, Germany)

* Orbital Elements

                    Epoch = 2023 June 25.0 TT
     T = 2023 July  8.64003 TT        Peri. = 356.63762
     e = 0.3434109                    Node  =  93.55606 2000.0
     q = 3.0714282 AU                 Incl. =   6.08283
       a =  4.6778545 AU   n = 0.09741683   P =  10.12 years

* Magnitudes Graph

        m1 = 13.5 + 5 log d + 10.0 log r

---------------------------------------------------------------------

The orbital elements are printed on CBET 5356.
The magnitudes graphs are made with Comet for Windows.

---------------------------------------------------------------------

Copyright(C) Seiichi Yoshida (comet@aerith.net). All rights reserved.